星链-37720(STARLINK-37720)

导读

STARLINK-37720(NORAD编号69129)是美国SpaceX公司星链(Starlink)互联网卫星星座中的一颗第二代卫星,属于低轨通信卫星,用于提供全球高速互联网接入服务。星链卫星部署在近地轨道,通常运行在550公里左右高度,单星质量约300千克,配备自动避撞系统和可展开太阳能板。这颗卫星于2024年上半年随星链批次发射入轨,加入已经拥有数千颗卫星的星座网络,为偏远地区、海洋航空等场景提供宽带服务,目前处于正常在轨运行状态。

基本信息
目录编号:
69129
目录名称:
STARLINK-37720
国际标识:
2026-110F
轨道中心:
EARTH
卫星名称:
星链-37720
卫星全名:
星链-37720(STARLINK-37720)
卫星状态:
在轨 (已飞行23 天)
发射日期:
2026-05-20 UTC
国别 :
美国 (US)
星等 :
--
轨道信息
数据来源 国际轨道数据
星历时间: 2026-06-12T14:01:10+0800
16小时前
查看轨道信息
半长轴: 6797.187km
偏心率: 0.0001474
轨道倾角: 97.285°
近地点辐角 88.469°
升交点赤经 359.444°
平近点角 271.673°
近地点: 418.048km
远地点: 420.052km
周期: 92.951分钟
每日圈数: 15.492054
详细信息
固有亮度:
5
最大亮度:
2.5
卫星平台:
Starlink V1.0
覆盖范围:
全球
运营商:
太空探索技术公司
运营商所在国:
美国
制造商(研发单位):
太空探索技术公司
制造商所在国:
美国
使用方式:
暂无
卫星简介
Starlink 计划是 SpaceX 推出的全球卫星互联网项目,通过发射低轨道卫星,为全球尤其是偏远地区提供高速、低延迟的互联网服务。自 2019 年起,Starlink 已部署数千颗卫星,旨在缩小全球数字鸿沟,推动互联网普及。该项目还为军事、航空等行业提供通信支持,带来广泛经济效益。
2D轨道图
3D轨道图
轨道高度分析图
轨道倾角分析图
轨道综合分析图
查看轨道综合分析图